ITY9925 LIMF-LIRF

Flight info

Callsign ITY9925
Flight time N/A
Altitude 35000
Route LAGEN1W LAGEN DCT ANAKI DCT BAKRO DCT ELB DCT ELKAP ELKAP3A
Aircraft A320/L-V/N

Departure

Time 2026-05-05 17:34
Airport Turin Airport (LIMF)

Arrival

Time N/A
Airport Rome–Fiumicino Leonardo da Vinci International Airport (LIRF)
Time Latitude Longitude Altitude Speed Heading
2026-05-05 17:25 45.19220 7.64522 986 ft 0 kts 257°
2026-05-05 17:26 45.19220 7.64523 986 ft 1 kts 257°
2026-05-05 17:26 45.19224 7.64545 992 ft 2 kts 258°
2026-05-05 17:26 45.19228 7.64568 986 ft 2 kts 259°
2026-05-05 17:26 45.19232 7.64590 989 ft 2 kts 259°
2026-05-05 17:27 45.19235 7.64612 991 ft 2 kts 258°
2026-05-05 17:27 45.19240 7.64635 991 ft 2 kts 255°
2026-05-05 17:27 45.19245 7.64657 989 ft 2 kts 239°
2026-05-05 17:27 45.19254 7.64670 992 ft 1 kts 168°
2026-05-05 17:28 45.19255 7.64669 993 ft 0 kts 171°
2026-05-05 17:30 45.19243 7.64670 992 ft 6 kts 178°
2026-05-05 17:30 45.19164 7.64664 986 ft 16 kts 184°
2026-05-05 17:30 45.19024 7.64655 989 ft 24 kts 182°
2026-05-05 17:30 45.18856 7.64643 987 ft 23 kts 181°
2026-05-05 17:31 45.18797 7.64721 987 ft 0 kts 86°
2026-05-05 17:32 45.18797 7.64729 985 ft 3 kts 87°
2026-05-05 17:32 45.18789 7.64797 982 ft 12 kts 95°
2026-05-05 17:33 45.18832 7.64884 981 ft 1 kts
2026-05-05 17:33 45.18893 7.64887 981 ft 34 kts 359°
2026-05-05 17:33 45.19431 7.64914 984 ft 113 kts
2026-05-05 17:33 45.20405 7.64973 1002 ft 167 kts
2026-05-05 17:34 45.21584 7.65045 1629 ft 170 kts
2026-05-05 17:34 45.22776 7.65142 2335 ft 171 kts
2026-05-05 17:34 45.23969 7.65226 3038 ft 177 kts
2026-05-05 17:34 45.25261 7.65301 3699 ft 198 kts
2026-05-05 17:35 45.26668 7.65833 4244 ft 223 kts 30°
2026-05-05 17:35 45.27819 7.67398 4478 ft 243 kts 61°
2026-05-05 17:35 45.28209 7.69801 4655 ft 262 kts 96°
2026-05-05 17:35 45.27633 7.72285 5091 ft 270 kts 115°
2026-05-05 17:36 45.26840 7.74685 5788 ft 272 kts 116°
2026-05-05 17:36 45.26026 7.77118 6749 ft 273 kts 116°
2026-05-05 17:36 45.25200 7.79585 7681 ft 278 kts 117°
2026-05-05 17:36 45.24169 7.81910 8596 ft 281 kts 127°
2026-05-05 17:37 45.23412 7.83430 9230 ft 285 kts 127°
2026-05-05 17:37 45.22240 7.85763 10145 ft 289 kts 128°
2026-05-05 17:37 45.21065 7.88094 10807 ft 302 kts 128°
2026-05-05 17:37 45.19785 7.90619 11187 ft 324 kts 129°
2026-05-05 17:38 45.18447 7.93268 11846 ft 334 kts 129°
2026-05-05 17:38 45.17071 7.95999 12344 ft 350 kts 129°
2026-05-05 17:38 45.15455 7.98648 12806 ft 358 kts 146°
2026-05-05 17:38 45.13260 8.00239 13512 ft 355 kts 164°
2026-05-05 17:39 45.10911 8.01252 13866 ft 356 kts 170°
2026-05-05 17:39 45.08498 8.01997 13946 ft 354 kts 173°
2026-05-05 17:39 45.06065 8.02621 13965 ft 353 kts 174°
2026-05-05 17:39 45.03648 8.03232 13971 ft 353 kts 173°
2026-05-05 17:40 45.01228 8.03889 13969 ft 353 kts 172°
2026-05-05 17:40 44.98851 8.04588 13956 ft 353 kts 172°
2026-05-05 17:40 44.96440 8.05337 13963 ft 354 kts 171°
2026-05-05 17:40 44.94023 8.06112 13966 ft 355 kts 171°
2026-05-05 17:41 44.91299 8.06999 13956 ft 355 kts 171°
2026-05-05 17:41 44.81747 8.10685 13907 ft 363 kts 153°
2026-05-05 17:41 44.73302 8.18627 14011 ft 361 kts 150°
2026-05-05 17:41 44.66071 8.25401 13965 ft 362 kts 151°
2026-05-05 17:42 44.61134 8.29924 13938 ft 366 kts 151°
2026-05-05 17:42 44.58987 8.31892 13959 ft 367 kts 151°
2026-05-05 17:42 44.56845 8.33857 13966 ft 367 kts 151°
2026-05-05 17:42 44.54709 8.35819 13957 ft 367 kts 151°
2026-05-05 17:43 44.51939 8.38359 13958 ft 367 kts 151°
2026-05-05 17:43 44.49805 8.40314 13956 ft 367 kts 151°
2026-05-05 17:43 44.47687 8.42251 13959 ft 367 kts 151°
2026-05-05 17:43 44.45546 8.44203 13961 ft 367 kts 151°
2026-05-05 17:44 44.43399 8.46156 13965 ft 367 kts 151°
2026-05-05 17:44 44.41263 8.48098 13950 ft 367 kts 151°
2026-05-05 17:44 44.39142 8.50104 13966 ft 368 kts 148°
2026-05-05 17:44 44.37099 8.52299 13967 ft 370 kts 145°
2026-05-05 17:45 44.35117 8.54614 13968 ft 371 kts 143°
2026-05-05 17:45 44.33186 8.56962 13966 ft 371 kts 143°
2026-05-05 17:45 44.31273 8.59311 13967 ft 371 kts 143°
2026-05-05 17:45 44.29329 8.61683 13958 ft 371 kts 143°
2026-05-05 17:46 44.27362 8.64049 13954 ft 371 kts 144°
2026-05-05 17:46 44.25397 8.66378 13956 ft 370 kts 144°
2026-05-05 17:46 44.23419 8.68698 13956 ft 370 kts 144°
2026-05-05 17:46 44.21455 8.70990 13956 ft 370 kts 145°
2026-05-05 17:47 44.19471 8.73303 13953 ft 371 kts 144°
2026-05-05 17:47 44.17490 8.75620 13958 ft 371 kts 144°
2026-05-05 17:47 44.15515 8.77939 13959 ft 371 kts 144°
2026-05-05 17:47 44.13560 8.80235 13959 ft 371 kts 144°
2026-05-05 17:48 44.11586 8.82548 13958 ft 371 kts 144°
2026-05-05 17:48 44.09608 8.84858 13959 ft 371 kts 144°
2026-05-05 17:48 44.07631 8.87164 13949 ft 371 kts 145°
2026-05-05 17:48 44.05647 8.89474 13957 ft 371 kts 145°
2026-05-05 17:49 44.03663 8.91783 13958 ft 371 kts 145°
2026-05-05 17:49 44.01683 8.94087 13956 ft 371 kts 145°
2026-05-05 17:49 43.97968 8.98402 13960 ft 371 kts 145°
2026-05-05 17:49 43.90045 9.07584 13958 ft 371 kts 145°
2026-05-05 17:50 43.82191 9.16674 13947 ft 372 kts 146°
2026-05-05 17:50 43.74214 9.25856 13954 ft 371 kts 146°
2026-05-05 17:50 43.66229 9.35011 13998 ft 372 kts 146°
2026-05-05 17:50 43.58238 9.44149 13966 ft 374 kts 146°
2026-05-05 17:51 43.50253 9.53241 13850 ft 373 kts 145°
2026-05-05 17:51 43.42280 9.62288 13581 ft 367 kts 145°
2026-05-05 17:51 43.34629 9.70955 11259 ft 356 kts 144°
2026-05-05 17:51 43.27077 9.79456 8886 ft 344 kts 144°
2026-05-05 17:52 43.19833 9.87585 6564 ft 329 kts 142°
2026-05-05 17:52 43.12942 9.95321 4914 ft 302 kts 142°
2026-05-05 17:52 43.06198 10.02874 4956 ft 285 kts 142°
2026-05-05 17:52 43.00520 10.09198 4992 ft 270 kts 142°
2026-05-05 17:53 42.94778 10.15566 4976 ft 263 kts 143°
2026-05-05 17:53 42.89079 10.21890 4978 ft 263 kts 143°
2026-05-05 17:53 42.83472 10.28080 4989 ft 260 kts 144°
2026-05-05 17:53 42.77829 10.34315 4987 ft 262 kts 143°
2026-05-05 17:54 42.73575 10.42442 4985 ft 268 kts 114°
2026-05-05 17:54 42.72576 10.52650 5005 ft 274 kts 96°